Wind_Speed
9 9 9 8 8 8 8 8 8 8 8 9 9 9 10 10 10 10 10 10 9 9 8 8 8 8 7 6 6 5 5 5 5 6 6 6 7 8 8 9 9 10 10
9 9 9 9 8 7 7 7 7 7 7 7 8 8 8 9 9 9 9 9 9 9 8 8 7 7 6 6 5 4 4 4 4 4 4 5 6 6 7 8 8 9 9
9 10 9 9 8 8 8 7 7 7 7 7 7 8 8 8 8 9 9 9 9 9 8 8 7 7 6 5 5 4 3 3 2 3 3 3 4 5 6 6 7 8 9
9 9 9 8 8 8 8 8 8 8 7 8 8 8 8 8 8 8 8 8 8 9 8 8 8 7 7 6 5 4 3 3 1 1 1 2 2 3 4 5 6 7 8
9 9 9 8 8 8 8 9 9 8 8 8 8 8 8 8 8 9 9 9 9 9 9 9 9 9 8 7 6 5 5 4 3 2 1 1 1 2 3 4 5 6 7
10 10 9 9 9 9 10 10 10 9 10 10 10 9 9 9 9 9 10 10 10 10 10 10 10 10 10 9 8 7 6 5 5 4 3 2 2 2 3 4 4 5 6
11 11 11 11 11 10 10 10 10 10 10 10 11 11 11 11 11 11 11 11 11 11 11 11 12 12 11 11 10 9 8 7 7 6 5 4 4 4 4 4 5 6 6
11 11 12 12 11 12 12 11 11 11 11 12 12 12 12 12 13 12 12 12 12 12 12 13 13 14 14 13 13 12 11 10 9 9 7 7 7 7 6 6 6 6 7
11 11 12 12 12 12 12 12 12 12 13 14 14 14 14 14 14 14 14 14 14 14 14 14 15 15 16 15 15 14 13 12 12 11 10 10 9 9 9 8 8 8 8
12 12 12 13 13 13 14 14 14 14 15 15 16 17 17 17 17 17 17 17 17 17 17 17 17 17 18 18 18 17 16 15 14 13 13 13 12 11 11 11 10 10 9
14 13 13 14 15 15 16 16 17 17 17 18 19 19 20 20 20 20 20 20 20 19 19 19 19 19 20 20 20 20 19 18 17 15 15 15 14 13 14 13 13 12 12
16 15 15 16 16 17 18 18 19 20 20 21 21 22 22 22 23 24 24 24 23 22 21 21 21 21 21 22 22 22 22 21 19 18 17 18 17 16 16 16 16 15 14
19 17 17 16 17 19 20 21 21 22 22 23 23 24 25 25 25 26 26 25 24 23 23 23 22 23 23 23 23 24 24 23 22 21 20 20 20 19 18 18 18 17 17
20 18 16 18 19 20 22 23 24 24 25 26 27 28 28 27 27 28 28 27 25 25 25 25 25 25 25 25 25 25 26 25 25 23 22 22 22 21 21 21 20 19 19
21 20 20 20 20 21 23 25 26 26 26 27 28 30 30 30 30 30 30 29 28 28 28 28 28 27 26 26 27 27 27 27 27 26 25 24 23 23 23 24 23 22 21
21 20 20 21 22 23 25 26 26 27 27 28 29 31 32 32 32 32 32 31 30 30 29 29 28 28 28 27 27 29 29 28 28 28 28 27 25 24 23 24 24 23 23
23 22 21 23 24 26 27 28 28 29 29 30 32 33 34 33 33 33 32 32 31 30 30 29 29 28 28 28 27 28 30 30 30 30 28 28 28 27 25 24 25 25 24
23 23 24 25 26 27 28 30 30 30 31 32 33 34 35 34 33 33 32 32 32 32 31 31 29 29 28 29 28 27 28 31 30 30 30 29 29 28 27 26 26 26 26
23 23 24 25 27 28 28 28 30 31 33 34 35 36 36 35 34 33 32 32 33 32 31 29 29 29 28 29 29 27 28 30 31 31 31 30 31 30 28 27 28 27 27
22 23 24 26 27 29 29 29 31 32 34 35 36 37 36 35 35 35 34 32 32 31 31 30 29 29 28 29 29 27 27 29 31 31 31 31 31 30 28 29 28 28 28
21 22 24 26 27 28 29 31 32 33 35 36 37 37 38 37 36 36 35 33 32 32 31 31 31 30 30 29 29 28 27 28 30 31 31 31 31 30 30 28 29 29 29
21 23 25 26 28 29 30 32 34 35 36 37 38 38 37 38 37 37 35 34 34 33 32 32 31 31 31 31 30 29 28 28 29 30 31 31 30 30 29 28 29 29 30
22 24 26 28 29 31 32 33 35 36 37 37 38 38 38 37 37 36 36 36 35 35 34 33 32 32 32 32 32 31 29 29 29 29 30 31 31 30 30 30 30 30 30
21 23 26 27 29 30 32 33 34 35 36 37 38 38 39 38 38 39 38 38 37 36 35 34 33 33 32 32 31 31 30 29 29 30 31 31 30 30 30 31 30 30 30
22 24 25 27 28 29 31 32 34 35 37 38 38 39 40 40 39 39 39 39 38 38 37 37 36 35 34 34 33 33 32 32 31 31 32 32 31 31 32 32 32 31 31
23 25 26 27 29 30 31 33 34 36 37 38 39 40 40 40 40 39 39 38 38 38 37 37 37 36 36 35 35 35 35 34 34 33 33 33 33 33 34 33 33 33 33
Wind_Direction
357 358 359 359 2 1 0 2 5 9 12 15 15 14 13 13 12 10 8 7 6 6 8 9 11 13 15 18 23 34 48 56 62 71 81 88 91 94 100 105 108 108 110
351 352 349 348 349 347 346 351 354 357 360 3 4 4 3 3 2 0 358 358 357 356 356 356 357 358 1 5 8 15 30 49 60 68 78 87 94 98 101 105 109 111 112
347 345 340 337 337 335 335 337 339 341 344 347 349 349 350 351 351 349 347 346 346 345 342 339 338 339 338 343 347 352 2 22 48 62 74 86 95 101 104 106 110 113 115
339 338 335 331 329 326 326 326 327 326 328 331 333 335 337 337 337 337 335 332 331 331 328 324 321 320 320 320 322 324 328 333 349 43 79 100 108 109 111 112 114 118 121
328 328 327 323 318 316 315 317 316 314 315 318 319 321 323 324 324 323 321 318 317 316 315 313 311 309 308 307 306 304 303 303 298 291 260 177 153 141 134 130 128 127 130
320 318 316 309 307 307 307 307 308 307 308 309 310 310 310 311 311 311 310 307 305 304 303 302 302 300 298 297 294 291 287 288 286 283 271 244 214 192 180 166 155 147 142
309 308 306 305 303 302 301 300 300 301 304 306 305 304 303 303 303 302 300 300 301 300 296 294 293 292 290 287 285 282 278 274 274 274 266 253 237 222 213 199 184 172 162
298 299 300 298 297 298 297 296 298 298 300 303 303 303 302 302 301 301 299 296 294 293 292 289 288 285 282 280 278 275 271 267 265 265 260 253 242 232 224 218 206 195 183
290 290 290 290 292 295 296 299 298 298 299 300 300 300 300 301 301 300 298 295 290 286 285 283 283 283 278 276 273 271 268 264 260 260 258 252 244 236 229 223 217 209 200
283 282 284 287 290 293 296 299 301 300 299 299 299 297 298 298 298 297 296 295 291 287 283 280 278 278 276 272 269 267 265 262 257 254 255 254 249 241 235 228 222 217 211
275 276 281 284 287 290 294 297 299 299 299 299 300 299 298 297 296 296 294 295 290 286 282 279 277 275 273 270 266 264 263 260 256 251 251 252 249 243 238 233 228 223 219
272 272 276 280 286 291 292 293 295 296 296 297 299 300 298 297 296 295 293 293 289 284 282 280 278 276 271 268 265 262 260 259 256 251 250 248 247 243 238 235 232 228 224
274 271 271 276 282 287 288 288 289 290 293 295 296 296 296 296 296 295 292 292 291 289 284 281 278 277 270 264 263 261 258 257 255 252 249 248 245 242 240 236 233 231 227
276 270 268 277 281 283 285 286 286 288 290 293 294 294 295 294 294 291 289 288 289 288 286 282 280 278 272 265 260 259 257 254 253 250 248 246 244 241 239 236 233 232 229
279 278 276 282 281 284 284 284 285 286 287 290 291 292 293 291 292 291 289 287 285 284 284 281 278 277 274 269 262 257 255 254 252 250 248 245 244 241 239 235 233 232 231
282 284 283 283 284 285 285 286 287 288 289 289 290 292 293 293 291 290 290 286 285 283 284 283 280 278 277 272 266 258 254 252 251 251 248 245 243 241 238 234 233 232 231
290 290 291 288 287 287 288 288 290 291 293 294 292 292 293 292 292 290 288 285 283 283 285 283 279 276 274 270 267 260 253 249 249 249 248 245 242 240 236 234 231 229 229
293 294 293 292 290 290 290 291 291 291 293 294 295 294 295 294 294 292 289 286 284 285 285 281 278 275 273 270 267 262 254 248 247 246 246 244 242 240 236 234 229 227 228
292 294 292 293 294 293 292 292 293 291 293 294 294 294 293 292 293 291 288 286 284 283 284 280 277 274 272 268 265 262 256 248 245 244 244 242 240 238 236 232 229 227 226
291 291 292 293 294 292 291 292 292 292 292 293 293 292 291 290 291 289 288 286 283 282 281 278 277 272 270 266 262 260 257 251 245 242 241 240 237 235 235 233 230 228 226
294 294 294 295 295 295 293 292 292 292 291 291 291 291 291 290 289 288 286 285 283 282 281 277 275 271 268 264 261 258 256 253 246 243 240 235 233 233 233 233 232 231 227
298 298 298 298 298 297 295 294 293 292 292 291 290 290 289 288 287 285 284 283 282 280 279 276 274 269 266 264 262 258 253 250 247 241 237 232 231 231 232 231 231 229 224
303 303 302 301 300 298 296 295 294 294 294 292 292 291 289 287 285 284 283 282 280 278 275 273 272 269 265 263 261 256 252 249 243 239 234 232 231 232 231 232 230 226 222
307 306 304 302 301 300 298 297 296 295 294 293 292 291 290 288 286 284 282 280 279 277 274 271 268 267 264 261 259 255 252 248 242 236 234 232 231 231 231 230 227 225 223
313 311 309 307 305 303 301 299 298 297 296 294 293 292 290 288 286 284 282 279 277 275 273 270 267 265 262 258 257 254 250 246 242 237 234 233 231 231 229 228 226 225 223
317 316 314 312 309 307 304 303 301 299 298 296 295 293 292 290 287 284 281 279 276 274 271 269 266 264 261 257 254 251 247 243 240 237 234 231 230 229 228 227 225 222 221
Height
5920 5919 5918 5917 5917 5916 5915 5914 5913 5913 5912 5911 5910 5909 5908 5907 5906 5905 5904 5903 5902 5901 5900 5899 5898 5897 5896 5896 5895 5895 5894 5894 5894 5894 5893 5893 5893 5893 5892 5892 5892 5892 5893
5920 5918 5918 5917 5916 5916 5915 5914 5913 5912 5911 5911 5910 5909 5908 5907 5906 5905 5904 5903 5902 5901 5900 5899 5898 5897 5897 5896 5896 5895 5895 5894 5894 5894 5894 5894 5894 5893 5893 5893 5893 5893 5894
5919 5918 5917 5917 5916 5915 5915 5914 5913 5912 5911 5910 5909 5908 5907 5906 5906 5904 5903 5902 5901 5900 5899 5898 5898 5897 5897 5896 5896 5895 5895 5894 5894 5894 5894 5894 5894 5894 5894 5894 5894 5894 5894
5918 5917 5917 5916 5915 5914 5914 5913 5912 5911 5910 5909 5908 5907 5906 5905 5904 5903 5902 5901 5900 5899 5898 5898 5897 5896 5896 5895 5895 5895 5894 5894 5894 5894 5894 5894 5894 5894 5894 5894 5894 5895 5895
5917 5916 5916 5915 5914 5913 5912 5912 5911 5910 5909 5907 5906 5905 5905 5904 5903 5902 5901 5900 5899 5898 5897 5896 5895 5895 5895 5894 5894 5894 5894 5893 5893 5894 5894 5894 5894 5894 5894 5894 5895 5895 5895
5916 5915 5914 5913 5913 5912 5911 5910 5909 5908 5907 5906 5905 5904 5903 5902 5901 5900 5899 5898 5897 5896 5895 5894 5894 5893 5893 5892 5892 5892 5892 5892 5892 5893 5893 5893 5893 5894 5894 5895 5895 5895 5896
5914 5913 5912 5912 5911 5910 5909 5908 5907 5906 5905 5904 5902 5901 5900 5899 5898 5898 5897 5896 5895 5894 5893 5892 5891 5891 5890 5890 5890 5890 5891 5891 5891 5891 5892 5892 5892 5893 5894 5894 5895 5895 5896
5911 5911 5910 5909 5908 5908 5906 5905 5904 5903 5902 5901 5900 5899 5897 5896 5896 5895 5894 5893 5892 5891 5891 5890 5889 5888 5888 5887 5887 5888 5888 5889 5889 5889 5890 5890 5891 5892 5892 5893 5894 5895 5895
5909 5908 5907 5906 5906 5905 5904 5903 5901 5900 5899 5898 5897 5895 5894 5893 5892 5891 5890 5889 5889 5888 5887 5886 5886 5885 5884 5884 5884 5885 5885 5886 5886 5887 5887 5888 5889 5889 5890 5892 5892 5893 5894
5906 5905 5904 5903 5903 5902 5901 5900 5898 5897 5896 5894 5893 5892 5890 5889 5888 5887 5886 5885 5884 5884 5883 5882 5882 5881 5881 5880 5880 5881 5881 5882 5883 5884 5884 5885 5886 5887 5888 5889 5890 5892 5893
5902 5901 5901 5900 5899 5898 5897 5896 5895 5893 5892 5890 5889 5887 5886 5885 5884 5883 5881 5880 5879 5878 5878 5877 5876 5876 5876 5876 5876 5876 5877 5878 5879 5880 5881 5881 5882 5884 5885 5886 5888 5889 5891
5897 5896 5896 5896 5895 5894 5893 5892 5890 5889 5887 5886 5884 5883 5881 5880 5879 5878 5876 5875 5874 5873 5872 5871 5870 5870 5870 5870 5871 5871 5872 5873 5875 5876 5877 5877 5878 5880 5881 5883 5885 5886 5888
5892 5891 5891 5890 5890 5889 5887 5886 5885 5884 5883 5881 5879 5877 5876 5875 5873 5872 5870 5869 5867 5866 5865 5864 5864 5864 5864 5864 5865 5865 5866 5868 5869 5871 5872 5873 5874 5875 5877 5879 5881 5883 5885
5886 5885 5885 5885 5884 5883 5882 5881 5880 5879 5877 5876 5874 5871 5870 5868 5867 5865 5864 5862 5861 5860 5858 5857 5857 5857 5857 5857 5857 5859 5860 5862 5863 5865 5867 5868 5869 5871 5872 5874 5876 5879 5881
5881 5880 5879 5879 5878 5878 5876 5875 5874 5873 5871 5869 5867 5865 5863 5861 5860 5858 5856 5854 5853 5852 5851 5850 5850 5850 5850 5850 5851 5852 5853 5855 5856 5858 5860 5862 5864 5865 5867 5869 5871 5874 5876
5874 5875 5874 5873 5872 5871 5870 5868 5867 5866 5864 5862 5860 5858 5856 5854 5852 5850 5849 5847 5846 5845 5844 5844 5843 5842 5842 5843 5843 5844 5846 5847 5849 5851 5853 5856 5857 5859 5861 5863 5866 5869 5871
5867 5868 5868 5867 5866 5865 5863 5861 5860 5858 5857 5855 5853 5851 5848 5846 5845 5843 5841 5840 5838 5837 5836 5836 5836 5835 5835 5835 5835 5836 5838 5839 5841 5844 5846 5849 5851 5853 5855 5857 5860 5863 5866
5864 5863 5863 5862 5860 5858 5856 5855 5853 5851 5849 5847 5845 5843 5840 5838 5836 5835 5833 5831 5830 5829 5828 5828 5827 5827 5827 5828 5828 5828 5830 5832 5834 5836 5839 5841 5844 5845 5848 5851 5854 5857 5861
5861 5860 5858 5856 5855 5853 5850 5848 5846 5844 5841 5839 5837 5834 5832 5829 5828 5827 5825 5823 5822 5821 5820 5820 5819 5819 5820 5820 5820 5821 5822 5823 5826 5829 5831 5834 5836 5839 5842 5845 5848 5851 5855
5857 5856 5854 5852 5849 5846 5843 5841 5840 5837 5834 5832 5829 5826 5824 5822 5820 5819 5817 5815 5814 5813 5813 5812 5811 5811 5811 5812 5812 5813 5815 5816 5818 5821 5823 5826 5829 5832 5835 5839 5842 5845 5849
5852 5850 5848 5846 5843 5840 5837 5835 5832 5829 5827 5824 5821 5819 5816 5814 5812 5810 5809 5807 5806 5805 5804 5804 5803 5803 5803 5804 5804 5806 5807 5808 5811 5813 5816 5819 5822 5826 5829 5832 5836 5839 5843
5847 5845 5843 5840 5837 5834 5830 5827 5824 5821 5818 5816 5813 5810 5808 5805 5803 5801 5800 5798 5797 5797 5796 5795 5795 5795 5795 5795 5796 5797 5799 5802 5803 5805 5808 5812 5815 5818 5822 5826 5829 5833 5836
5843 5840 5837 5833 5830 5826 5823 5819 5816 5812 5809 5806 5803 5800 5798 5796 5793 5792 5790 5789 5788 5787 5787 5786 5786 5786 5787 5787 5788 5789 5791 5794 5796 5798 5801 5805 5808 5812 5816 5819 5823 5826 5830
5839 5836 5832 5828 5824 5819 5815 5811 5808 5804 5800 5797 5794 5791 5788 5786 5783 5781 5780 5778 5777 5777 5777 5777 5777 5777 5778 5779 5779 5781 5783 5785 5788 5791 5794 5797 5801 5804 5808 5812 5816 5820 5824
5834 5830 5826 5821 5817 5812 5808 5803 5799 5795 5791 5787 5784 5780 5777 5774 5772 5770 5768 5767 5766 5766 5766 5766 5766 5767 5768 5769 5770 5772 5773 5776 5779 5782 5786 5789 5793 5797 5801 5805 5810 5814 5817
5827 5823 5819 5814 5809 5805 5800 5795 5790 5786 5781 5777 5773 5769 5766 5763 5760 5758 5757 5755 5754 5754 5754 5754 5755 5756 5757 5759 5760 5762 5764 5767 5770 5774 5777 5781 5785 5789 5793 5798 5802 5807 5811